GW2918 Weather Reports


Display with metric or nautical units.
time (UTC)temp
F
wind
direction
speed
MPH
gust
MPH
rain 1hr
in
rain 24hr
in
rain mn
in
humidity
%
barometer
mb
20260507092730 37 53 5.0 6.0 0.00 0.00 0.00 90 1011.7
20260507091728 37 54 6.0 7.0 0.00 0.00 0.00 90 1011.6
20260507090725 37 66 6.0 8.0 0.00 0.00 0.00 90 1011.5
20260507085725 38 77 4.0 6.0 0.00 0.00 0.00 89 1011.8
20260507084724 38 50 4.0 6.0 0.00 0.00 0.00 90 1011.7
20260507083724 38 59 5.0 6.0 0.00 0.00 0.00 90 1011.7
20260507082722 39 48 6.0 9.0 0.00 0.00 0.00 90 1011.7
20260507081720 39 38 7.0 8.0 0.00 0.00 0.00 90 1011.8
20260507080719 40 43 4.0 8.0 0.00 0.00 0.00 89 1011.7
20260507075716 40 32 5.0 8.0 0.00 0.00 0.00 92 1011.7
20260507074715 41 51 5.0 6.0 0.00 0.00 0.00 94 1011.6
20260507073710 41 60 4.0 5.0 0.00 0.00 0.00 94 1011.6
20260507072710 40 115 2.0 4.0 0.00 0.00 0.00 94 1011.7
20260507071710 40 22 9.0 10.0 0.00 0.00 0.00 95 1011.8
20260507070710 40 75 4.0 5.0 0.00 0.00 0.00 96 1011.9
20260507065708 40 54 2.0 4.0 0.00 0.00 0.00 98 1011.7
20260507064703 40 83 2.0 5.0 0.00 0.00 0.00 96 1011.8
20260507063659 40 103 3.0 4.0 0.00 0.00 0.00 95 1011.7
20260507062658 40 53 3.0 6.0 0.00 0.00 0.00 95 1011.7
20260507061653 40 74 3.0 4.0 0.00 0.00 0.00 96 1011.7
20260507060649 40 317 1.0 5.0 0.00 0.00 0.00 97 1011.7
20260507055647 41 38 3.0 4.0 0.00 0.00 0.00 97 1011.6
20260507054645 40 41 2.0 4.0 0.00 0.00 0.00 98 1011.3
20260507053640 41 353 1.0 4.0 0.00 0.00 0.00 99 1011.6
20260507052636 41 295 2.0 4.0 0.00 0.00 0.00 99 1011.6
20260507051635 41 327 1.0 5.0 0.00 0.00 0.00 99 1011.4
20260507050635 42 319 3.0 4.0 0.00 0.00 0.00 99 1011.5
20260507045634 41 43 2.0 2.0 0.00 0.00 0.00 99 1011.2
20260507044634 41 40 2.0 4.0 0.00 0.00 0.00 99 1011.3
20260507043633 41 67 2.0 3.0 0.00 0.00 0.00 99 1011.4
20260507042632 41 52 0.0 3.0 0.00 0.00 0.00 99 1011.4
20260507041630 41 63 1.0 3.0 0.00 0.00 0.00 99 1011.2
20260507040630 41 69 2.0 3.0 0.00 0.00 0.00 99 1011.6
20260507035628 42 104 0.0 2.0 0.00 0.39 0.39 99 1011.2
20260507034626 41 78 1.0 3.0 0.00 0.39 0.39 99 1011.4
20260507033622 41 84 2.0 3.0 0.00 0.39 0.39 99 1011.2
20260507032622 41 67 1.0 4.0 0.00 0.39 0.39 99 1011.4
20260507031621 42 50 1.0 3.0 0.00 0.39 0.39 99 1011.2
20260507030620 42 56 2.0 2.0 0.00 0.39 0.39 99 1011.2
20260507025615 42 88 1.0 2.0 0.00 0.39 0.39 99 1011.1
20260507024610 42 121 0.0 2.0 0.00 0.39 0.39 99 1011.5
20260507023608 42 48 1.0 2.0 0.00 0.39 0.39 99 1011.4
20260507022603 43 74 1.0 2.0 0.00 0.39 0.39 99 1011.6
20260507021600 43 64 0.0 2.0 0.00 0.39 0.39 99 1011.5
20260507020555 42 113 0.0 2.0 0.00 0.39 0.39 99 1011.9
20260507015555 43 9 2.0 3.0 0.00 0.39 0.39 99 1011.9
20260507014555 43 65 0.0 3.0 0.00 0.39 0.39 99 1011.8
20260507013553 43 215 0.0 2.0 0.00 0.39 0.39 99 1012.0
20260507012548 43 70 0.0 1.0 0.00 0.39 0.39 99 1012.1
20260507011547 43 54 1.0 3.0 0.00 0.39 0.39 99 1011.9
20260507010543 44 30 2.0 3.0 0.00 0.39 0.39 99 1011.7
20260507005538 44 35 2.0 3.0 0.00 0.39 0.39 99 1011.6
20260507004537 43 338 1.0 3.0 0.00 0.39 0.39 99 1011.7
20260507003536 43 1 2.0 4.0 0.00 0.39 0.39 99 1011.3
20260507002534 44 38 2.0 4.0 0.00 0.39 0.39 99 1011.3
20260507001532 43 21 2.0 3.0 0.00 0.39 0.39 99 1011.2
20260507000532 43 12 2.0 5.0 0.00 0.39 0.39 99 1011.0
20260506235531 43 4 6.0 6.0 0.00 0.39 0.39 99 1010.9
20260506234530 43 29 4.0 4.0 0.00 0.39 0.39 99 1010.7
20260506233530 43 15 2.0 6.0 0.00 0.39 0.39 99 1010.7
20260506232528 44 345 5.0 5.0 0.00 0.39 0.39 99 1010.8
20260506231528 44 340 3.0 4.0 0.00 0.39 0.39 99 1010.6
20260506230527 44 4 2.0 5.0 0.00 0.39 0.39 99 1010.5
20260506225527 44 10 2.0 4.0 0.00 0.39 0.39 99 1010.7
20260506224525 44 334 4.0 4.0 0.00 0.39 0.39 99 1010.5
20260506223523 44 324 2.0 6.0 0.00 0.39 0.39 99 1010.5
20260506222522 44 8 4.0 5.0 0.00 0.39 0.39 99 1010.4
20260506221521 44 351 3.0 6.0 0.00 0.39 0.39 99 1010.3
20260506220519 44 7 4.0 9.0 0.00 0.39 0.39 99 1010.0
20260506215518 44 345 5.0 7.0 0.00 0.39 0.39 99 1009.6
20260506214517 44 322 4.0 8.0 0.00 0.39 0.39 99 1009.6
20260506213512 45 29 4.0 5.0 0.02 0.39 0.39 99 1009.4
20260506212511 44 345 6.0 9.0 0.00 0.39 0.39 99 1009.1
20260506211508 45 10 2.0 5.0 0.05 0.39 0.39 99 1009.2
20260506210508 45 351 3.0 5.0 0.02 0.38 0.38 99 1009.1
20260506205507 45 6 5.0 9.0 0.00 0.37 0.37 99 1008.8
20260506204507 45 342 5.0 6.0 0.00 0.37 0.37 99 1008.8
20260506203502 46 19 4.0 8.0 0.02 0.37 0.37 99 1008.6
20260506202501 46 20 4.0 6.0 0.02 0.37 0.37 99 1008.3
20260506201501 46 349 4.0 6.0 0.05 0.37 0.37 99 1008.0
20260506200500 46 11 4.0 6.0 0.02 0.36 0.36 99 1007.9
20260506195500 47 13 4.0 6.0 0.05 0.35 0.35 99 1007.8
20260506194459 47 4 4.0 8.0 0.05 0.35 0.35 99 1007.8
20260506193459 47 2 3.0 9.0 0.09 0.33 0.33 99 1007.5
20260506192459 48 354 4.0 8.0 0.02 0.32 0.32 99 1007.4
20260506191458 49 5 4.0 11.0 0.00 0.31 0.31 99 1007.3
20260506190457 56 193 3.0 5.0 0.00 0.31 0.31 99 1007.3
20260506185457 56 209 3.0 9.0 0.00 0.31 0.31 99 1006.9
20260506184457 56 220 2.0 11.0 0.00 0.31 0.31 99 1007.1
20260506183455 56 221 4.0 14.0 0.00 0.31 0.31 99 1007.0
20260506182455 56 200 4.0 8.0 0.00 0.31 0.31 99 1007.1
20260506181451 56 233 13.0 14.0 0.00 0.31 0.31 99 1006.7
20260506180449 56 217 5.0 8.0 0.00 0.31 0.31 99 1007.2
20260506175449 56 196 3.0 7.0 0.00 0.31 0.31 99 1007.0
20260506174449 56 212 7.0 9.0 0.00 0.31 0.31 99 1006.9
20260506173449 56 211 10.0 12.0 0.00 0.31 0.31 99 1006.8
20260506172449 56 236 9.0 15.0 0.00 0.31 0.31 99 1007.0
20260506171449 56 220 6.0 15.0 0.00 0.31 0.31 99 1007.0
20260506170449 56 201 3.0 7.0 0.00 0.31 0.31 99 1007.0
20260506165446 55 209 11.0 12.0 0.00 0.31 0.31 99 1007.0
20260506164444 55 206 5.0 9.0 0.00 0.31 0.31 99 1006.9
20260506163443 55 225 7.0 11.0 0.02 0.31 0.31 99 1007.1
20260506162441 55 182 4.0 9.0 0.02 0.31 0.31 99 1006.9
20260506161437 55 188 2.0 7.0 0.09 0.30 0.30 99 1007.2
20260506160437 55 137 5.0 9.0 0.00 0.28 0.28 99 1007.2
20260506155433 55 232 9.0 11.0 0.00 0.28 0.28 99 1007.2
20260506153559 55 207 3.0 9.0 0.00 0.28 0.28 99 1007.1
20260506152559 55 171 6.0 8.0 0.02 0.28 0.28 99 1007.1
20260506151555 55 216 6.0 9.0 0.05 0.28 0.28 99 1007.3
20260506150554 55 219 7.0 8.0 0.07 0.27 0.27 99 1007.2
20260506145553 55 219 6.0 9.0 0.05 0.26 0.26 99 1007.1
20260506144553 54 220 9.0 12.0 0.05 0.25 0.25 99 1007.0
20260506143548 54 196 4.0 12.0 0.02 0.24 0.24 99 1007.0
20260506142544 54 180 3.0 14.0 0.09 0.24 0.24 99 1007.0
20260506141539 54 153 9.0 14.0 0.00 0.22 0.22 99 1007.1
20260506140534 55 195 5.0 9.0 0.02 0.22 0.22 99 1007.1
20260506135534 55 201 9.0 18.0 0.00 0.22 0.22 98 1007.2
20260506134533 55 196 8.0 13.0 0.00 0.22 0.22 98 1007.1
20260506133532 55 208 4.0 10.0 0.00 0.22 0.22 98 1006.9
20260506132532 54 186 5.0 9.0 0.05 0.22 0.22 99 1007.3
20260506131532 54 130 5.0 5.0 0.09 0.21 0.21 99 1006.9
20260506130531 54 184 4.0 7.0 0.12 0.20 0.20 99 1007.6
20260506125527 54 207 3.0 7.0 0.07 0.18 0.18 99 1007.8
20260506124522 54 138 5.0 10.0 0.12 0.16 0.16 98 1008.0
20260506123517 54 217 8.0 9.0 0.07 0.14 0.14 98 1008.0
20260506122517 53 165 2.0 5.0 0.05 0.13 0.13 99 1008.0
20260506121513 53 199 4.0 6.0 0.07 0.12 0.12 99 1007.8
20260506120513 53 218 4.0 5.0 0.05 0.11 0.11 99 1007.7
20260506115508 53 153 2.0 4.0 0.02 0.10 0.10 99 1007.7
20260506114503 53 142 2.0 3.0 0.02 0.10 0.10 99 1007.7
20260506113459 53 173 2.0 4.0 0.05 0.09 0.09 99 1007.9
20260506112459 53 186 2.0 4.0 0.02 0.09 0.09 99 1007.9
20260506111454 53 210 2.0 4.0 0.05 0.08 0.08 98 1007.8
20260506110454 53 189 2.0 4.0 0.05 0.07 0.07 98 1008.1
20260506105453 53 201 2.0 4.0 0.05 0.07 0.07 97 1007.8
20260506104448 53 256 1.0 2.0 0.05 0.06 0.06 97 1008.0
20260506103443 53 106 2.0 3.0 0.00 0.05 0.05 97 1007.8
20260506102438 53 69 2.0 3.0 0.02 0.05 0.05 96 1007.9
20260506101437 53 356 3.0 3.0 0.00 0.05 0.05 95 1007.8
20260506100433 53 164 3.0 5.0 0.05 0.04 0.04 95 1007.7
20260506095429 54 143 2.0 4.0 0.02 0.04 0.04 92 1007.6
20260506094429 54 110 1.0 5.0 0.02 0.03 0.03 90 1007.5